Regional Weather Roundup
Issued by NWS Little Rock, AR

Home | Current Version | Previous Version | Graphics & Text | Print | Product List | Glossary On
Versions: 1 2 3 4 5 6 7 8 9 10 11 12 13 14 15 16 17 18 19 20 21 22 23 24 25 26 27 28 29 30 31 32
000
ASUS44 KLZK 170805
RWRLZK

WEATHER ROUNDUP FOR ARKANSAS
NATIONAL WEATHER SERVICE LITTLE ROCK AR
300 AM CDT TUE OCT 17 2017

NOTE: "FAIR" INDICATES FEW OR NO CLOUDS BELOW 12,000 FEET WITH NO
SIGNIFICANT WEATHER AND/OR OBSTRUCTIONS TO VISIBILITY.

ARZ001-003-010-029-170900-
NORTHWEST ARKANSAS

CITY           SKY/WX    TMP DP  RH WIND       PRES   REMARKS
FAYETTEVILLE   CLEAR     37  37 100 CALM      30.31S
FORT SMITH     CLEAR     49  47  93 CALM      30.31R
HARRISON       CLEAR     40  38  93 SE3       30.30F
BENTONVILLE    CLEAR     44  41  89 SE3       30.31S
ROGERS         CLEAR     46  42  86 SE5       30.30S
SILOAM SPGS    CLEAR     43  41  93 E3        30.30S
HIGHFILL       CLEAR     42  39  89 CALM      30.30S
$$

ARZ004-005-016-170900-
NORTH CENTRAL ARKANSAS

CITY           SKY/WX    TMP DP  RH WIND       PRES   REMARKS
BATESVILLE     CLEAR     42  41  96 NW3       30.33R
FLIPPIN        CLEAR     40  38  93 CALM      30.33R
MTN HOME       CLEAR     43  40  89 CALM      30.30S
$$

ARZ040-041-170900-
WEST CENTRAL ARKANSAS

CITY           SKY/WX    TMP DP  RH WIND       PRES   REMARKS
MENA           CLEAR     41  39  93 CALM      30.31S
$$

ARZ009-017-025-026-028-170900-
NORTHEAST ARKANSAS

CITY           SKY/WX    TMP DP  RH WIND       PRES   REMARKS
JONESBORO      CLEAR     43  40  89 NE3       30.31S
NEWPORT        CLEAR     43  41  93 NW6       30.32S
WALNUT RIDGE   CLEAR     43  41  93 NW3       30.32R
BLYTHEVILLE    CLEAR     43  42  97 NE3       30.32S
$$

ARZ022-023-033-042-044-170900-
CENTRAL ARKANSAS

CITY           SKY/WX    TMP DP  RH WIND       PRES   REMARKS
LITTLE ROCK    CLEAR     45  44  97 CALM      30.32R
N LITTLE ROCK    N/A     48  40  75 CALM      30.34R
JACKSONVILLE   CLEAR     40  39  95 W3        30.31R
SEARCY         CLEAR     42  42 100 MISG        N/A
HOT SPRINGS    CLEAR     44  42  93 CALM      30.32R
RUSSELLVILLE   CLEAR     42  42 100 CALM      30.31S
CLINTON        FAIR      39  39 100 CALM      30.33F
$$

ARZ036-170900-
EAST ARKANSAS

CITY           SKY/WX    TMP DP  RH WIND       PRES   REMARKS
WEST MEMPHIS   CLEAR     44  44 100 CALM      30.29F
$$

ARZ050-053-066-070-073-170900-
SOUTHWEST ARKANSAS

CITY           SKY/WX    TMP DP  RH WIND       PRES   REMARKS
ARKADELPHIA    FAIR      38  37  97 CALM      30.32R
CAMDEN         CLEAR     39  36  87 CALM      30.29F
TEXARKANA      CLEAR     45  41  86 CALM      30.29S
EL DORADO      CLEAR     43  40  89 CALM      30.29S
$$

ARZ056-057-069-170900-
SOUTHEAST ARKANSAS

CITY           SKY/WX    TMP DP  RH WIND       PRES   REMARKS
PINE BLUFF     CLEAR     41  38  89 CALM      30.30S
STUTTGART      CLEAR     43  38  82 NE5       30.31R
MONTICELLO     CLEAR     44  41  89 CALM      30.29S

$$






USA.gov is the U.S. government's official web portal to all federal, state and local government web resources and services.